Location: Geyikbay?r?
(36.8756°N, 30.4583°E)
Time: 15:14:17
(UTC+00:00)

Cosmos 2263 Rocket - Pass Details

Date: 05 August 2024
Orbit: 822 x 849 km, 71.0° (Epoch: 11 September)

Event Time Altitude Azimuth Distance (km) Brightness Sun altitude
Rises 22:32:19 0° 334° (NNW) 3,396 6.0 -36.1°
Reaches altitude 10° 22:34:46 10° 331° (NNW) 2,462 5.1 -36.0°
Enters shadow 22:37:14 26° 323° (NW) 1,587 3.9 -35.9°
